CW8332 Weather Reports


time (UTC)temp
C
wind
direction
speed
KPH
gust
KPH
rain 1hr
cm
rain 24hr
cm
rain mn
cm
humidity
%
barometer
mb
20260510120223 10 71 1.6 12.9 0.00 0.79 0.03 70 1014.3
20260510114726 10 313 1.6 9.7 0.00 0.79 0.03 73 1013.8
20260510113217 10 47 1.6 9.7 0.00 0.79 0.03 75 1013.5
20260510111751 9 304 1.6 4.8 0.00 0.79 0.03 78 1013.3
20260510110230 9 46 1.6 4.8 0.00 0.79 0.03 79 1013.0
20260510104713 9 84 0.0 6.4 0.00 0.79 0.03 80 1012.5
20260510103225 9 83 0.0 3.2 0.00 0.79 0.03 80 1012.2
20260510101714 9 83 0.0 1.6 0.00 0.79 0.03 81 1011.9
20260510100237 9 83 0.0 1.6 0.00 0.79 0.03 82 1011.8
20260510094722 10 83 0.0 1.6 0.00 0.79 0.03 83 1011.6
20260510093212 10 83 0.0 3.2 0.00 0.79 0.03 83 1011.4
20260510091726 10 83 0.0 1.6 0.00 0.79 0.03 84 1011.1
20260510090231 10 83 0.0 1.6 0.00 0.79 0.03 84 1010.9
20260510084711 10 83 0.0 1.6 0.00 0.79 0.03 85 1010.5
20260510083224 10 83 0.0 0.0 0.00 0.79 0.03 86 1010.4
20260510081736 10 83 0.0 0.0 0.00 0.79 0.03 85 1010.4
20260510080242 10 83 0.0 0.0 0.00 0.79 0.03 84 1009.8
20260510074724 10 83 0.0 0.0 0.00 0.79 0.03 84 1009.6
20260510073214 10 83 0.0 0.0 0.00 0.79 0.03 83 1009.3
20260510071725 11 83 0.0 0.0 0.00 0.79 0.03 82 1009.1
20260510070231 11 83 0.0 0.0 0.00 0.79 0.03 82 1009.0
20260510064733 11 83 0.0 1.6 0.00 0.81 0.03 81 1008.9
20260510063224 11 83 0.0 1.6 0.00 0.81 0.03 81 1008.8
20260510061722 11 83 0.0 4.8 0.03 0.81 0.03 81 1008.7
20260510060223 11 71 3.2 8.0 0.03 0.81 0.03 83 1008.7
20260510054745 11 46 0.0 3.2 0.03 0.81 0.03 82 1008.6
20260510053215 12 360 6.4 12.9 0.03 0.81 0.03 80 1008.1
20260510051729 13 81 6.4 16.1 0.00 0.79 0.00 78 1007.5
20260510050233 15 277 6.4 12.9 0.00 0.79 0.00 79 1008.2
20260510044713 15 282 3.2 11.3 0.00 0.79 0.00 80 1007.1
20260510043248 14 301 3.2 8.0 0.00 0.79 0.00 80 1006.7
20260510041722 15 306 0.0 0.0 0.00 0.79 0.00 80 1005.9
20260510040224 15 306 0.0 1.6 0.00 0.79 0.00 81 1005.7
20260510034725 15 307 0.0 4.8 0.00 0.79 0.79 81 1005.7
20260510033216 15 270 1.6 6.4 0.00 0.79 0.79 84 1005.8
20260510031732 13 293 1.6 4.8 0.00 0.79 0.79 86 1005.8
20260510030235 13 325 0.0 1.6 0.00 0.79 0.79 86 1005.6
20260510024715 13 325 0.0 6.4 0.00 0.79 0.79 87 1005.8
20260510023212 13 154 0.0 1.6 0.00 0.79 0.79 88 1006.0
20260510021723 13 155 0.0 4.8 0.00 0.79 0.79 88 1005.6
20260510020246 13 219 0.0 1.6 0.00 0.79 0.79 88 1005.5
20260510014727 13 282 0.0 1.6 0.00 0.79 0.79 88 1005.5
20260510013238 13 284 0.0 0.0 0.00 0.79 0.79 88 1005.4
20260510011712 13 284 0.0 1.6 0.00 0.79 0.79 88 1005.2
20260510010235 13 284 0.0 3.2 0.00 0.79 0.79 88 1005.0
20260510004713 13 285 0.0 0.0 0.00 0.79 0.79 88 1005.0
20260510003229 14 285 0.0 1.6 0.00 0.79 0.79 87 1005.1
20260510001718 14 286 0.0 1.6 0.00 0.79 0.79 88 1005.1
20260510000242 14 285 0.0 4.8 0.74 0.79 0.79 87 1005.0
20260509234722 14 285 0.0 1.6 0.74 0.79 0.79 87 1004.9
20260509233218 14 286 0.0 6.4 0.74 0.79 0.79 86 1004.9
20260509231753 14 248 0.0 3.2 0.74 0.79 0.79 85 1004.9
20260509230234 14 277 1.6 8.0 0.00 0.05 0.05 82 1005.0
20260509224715 16 279 6.4 24.1 0.00 0.05 0.05 70 1005.6
20260509223231 21 284 14.5 27.4 0.00 0.05 0.05 53 1004.5
20260509221745 21 238 1.6 14.5 0.00 0.05 0.05 53 1002.3
20260509220223 21 277 6.4 11.3 0.00 0.05 0.05 51 1002.1
20260509214724 21 173 3.2 19.3 0.00 0.05 0.05 52 1002.1
20260509213220 22 153 4.8 14.5 0.00 0.05 0.05 51 1001.8
20260509211731 22 189 4.8 12.9 0.00 0.05 0.05 51 1001.7
20260509210231 22 191 3.2 12.9 0.00 0.05 0.05 55 1002.2
20260509204714 22 180 6.4 14.5 0.00 0.05 0.05 54 1002.2
20260509203226 22 178 3.2 19.3 0.00 0.05 0.05 53 1002.5
20260509201716 21 182 6.4 20.9 0.00 0.05 0.05 52 1003.0
20260509200240 21 171 3.2 14.5 0.00 0.05 0.05 53 1003.2
20260509194724 21 208 4.8 14.5 0.00 0.05 0.05 56 1003.3
20260509193214 21 166 4.8 12.9 0.00 0.05 0.05 55 1003.4
20260509191729 21 222 3.2 14.5 0.00 0.05 0.05 55 1003.8
20260509190232 21 170 3.2 9.7 0.00 0.05 0.05 59 1004.1
20260509184712 20 142 4.8 9.7 0.03 0.08 0.05 58 1004.2
20260509183224 20 211 1.6 11.3 0.03 0.08 0.05 59 1004.3
20260509181714 20 153 3.2 9.7 0.03 0.08 0.05 56 1004.3
20260509180242 20 208 4.8 12.9 0.03 0.08 0.05 59 1004.0
20260509174722 20 175 3.2 12.9 0.00 0.05 0.03 59 1004.4
20260509173212 20 263 1.6 12.9 0.00 0.05 0.03 62 1004.5
20260509171726 20 255 4.8 12.9 0.00 0.05 0.03 61 1004.3
20260509170255 19 173 3.2 11.3 0.00 0.05 0.03 63 1004.4
20260509164713 18 283 6.4 12.9 0.00 0.05 0.03 65 1004.7
20260509163246 18 175 3.2 16.1 0.00 0.05 0.03 65 1004.6
20260509161718 18 157 3.2 12.9 0.00 0.05 0.03 66 1004.8
20260509160245 18 165 4.8 12.9 0.00 0.05 0.03 66 1005.2
20260509154725 18 300 3.2 14.5 0.00 0.05 0.03 71 1005.5
20260509153217 16 267 1.6 8.0 0.00 0.05 0.03 74 1005.4
20260509151714 16 290 6.4 16.1 0.00 0.05 0.03 74 1005.4
20260509150235 16 301 1.6 11.3 0.00 0.05 0.03 76 1005.3
20260509144714 16 282 3.2 11.3 0.00 0.05 0.03 76 1005.4
20260509143228 16 259 3.2 11.3 0.00 0.05 0.03 79 1005.3
20260509141723 16 294 3.2 11.3 0.00 0.05 0.03 81 1005.3
20260509140223 15 275 0.0 12.9 0.00 0.05 0.03 82 1005.4
20260509134723 15 299 1.6 8.0 0.00 0.08 0.03 83 1005.3
20260509133214 15 279 1.6 4.8 0.00 0.08 0.03 86 1005.5
20260509131730 14 169 0.0 0.0 0.00 0.08 0.03 88 1005.5
20260509130232 13 171 0.0 0.0 0.00 0.08 0.03 88 1005.5
20260509124733 13 169 0.0 3.2 0.00 0.08 0.03 89 1005.7
20260509123226 13 159 0.0 1.6 0.00 0.08 0.03 89 1005.8
20260509121717 13 161 0.0 0.0 0.00 0.08 0.03 90 1005.9